Location: Unspecified
(41.1637°N, 24.2901°E)
Time: 11:12:44
(UTC+02:00)

ISS - Pass Details

Date: 07 May 2026
Orbit: 414 x 424 km, 51.6° (Epoch: 12 May)

Event Time Altitude Azimuth Distance (km) Brightness Sun altitude
Rises 20:03:52 0° 188° (S) 2,332 -0.2 -7.2°
Reaches altitude 10° 20:06:48 10° 159° (SSE) 1,477 -1.5 -7.6°
Maximum altitude 20:08:24 13° 130° (SE) 1,311 -1.9 -7.9°
Drops below altitude 10° 20:10:01 10° 101° (E) 1,482 -1.6 -8.2°
Enters shadow 20:10:13 - 98° (E) 1,527 -1.5 -8.2°
